Tracking 31013 objects as of 11-Jul-2025
HD Live streaming from Space Station
objects crossing your sky now

COSMOS 1275 DEB

Track COSMOS 1275 DEB now!
10-day predictions


NORAD ID: 42158
Int'l Code: 1981-053RW
Perigee: 892.4 km
Apogee: 1,042.5 km
Inclination: 83.0 °
Period: 104.3 minutes
Semi major axis: 7338 km
RCS: Unknown
Launch date: June 4, 1981
Source: Commonwealth of Independent States (former USSR) (CIS)
Launch site: PLESETSK MISSILE AND SPACE COMPLEX (PKMTR)

Note: This is SATELLITE DEBRIS
Your satellite tracking list
Your tracking list is empty




NASA's NSSDC Master Catalog

Two Line Element Set (TLE):
1 42158U 81053RW  25189.47505243  .00000985  00000-0  88389-3 0  9993
2 42158  83.0051  76.9326 0102289 301.9876 237.9197 13.81003630583939
Source of the keplerian elements: AFSPC